Location: Béaulencourt
(50.0796°N, 2.8795°E)
Time: 04:54:55
(UTC+00:00)

ARIANE 6 FM1 Upper Stage - Pass Details

Date: 15 March 2026
Orbit: 525 x 604 km, 62.0° (Epoch: 17 April)

Event Time Altitude Azimuth Distance (km) Brightness Sun altitude
Exits shadow 02:46:56 18° 99° (E) 1,372 5.0 -30.2°
Drops below altitude 10° 02:48:49 10° 73° (ENE) 1,798 6.0 -30.0°
Sets 02:51:26 0° 56° (NE) 2,683 7.3 -29.6°
